Overview Statistics Trail Chart Weather Telemetry Raw packets
 

This is the latest recevied weather packets stored in our database for station/object K3RUP-1. If no packets are shown the sender has not sent any weather packets the latest 10 day(s).

<< 91 92 93 94 95 96 97 >>
Time Temp. Humidity Pressure Rain* Wind** Luminosity Snow
1788017291 23.89° C 58% 1024 hPa 0 mm - 595 W/m² -
1788016988 23.33° C 61% 1023.8 hPa 0 mm - 614 W/m² -
1788016687 22.78° C 61% 1024 hPa 0 mm - 603 W/m² -
1788016385 22.78° C 60% 1023.8 hPa 0 mm - 612 W/m² -
1788016084 22.78° C 63% 1023.6 hPa 0 mm - 112 W/m² -
1788015783 22.78° C 63% 1023.9 hPa 0 mm - 93 W/m² -
1788015479 22.22° C 63% 1023.9 hPa 0 mm - 138 W/m² -
1788015174 22.22° C 63% 1023.7 hPa 0 mm - 173 W/m² -
1788014871 22.78° C 61% 1023.9 hPa 0 mm - 157 W/m² -
1788014566 22.22° C 64% 1023.8 hPa 0 mm - 180 W/m² -
1788014262 22.78° C 62% 1023.6 hPa 0 mm - 162 W/m² -
1788013957 22.22° C 65% 1023.7 hPa 0 mm - 182 W/m² -
1788013652 22.22° C 63% 1023.7 hPa 0 mm - 152 W/m² -
1788013345 22.22° C 62% 1023.7 hPa 0 mm - 122 W/m² -
1788013040 22.22° C 64% 1023.6 hPa 0 mm - 130 W/m² -
1788012739 21.67° C 63% 1023.4 hPa 0 mm - 95 W/m² -
1788012446 22.22° C 64% 1023.5 hPa 0 mm - 74 W/m² -
1788012133 22.22° C 65% 1023.6 hPa 0 mm - 101 W/m² -
1788011828 22.22° C 64% 1023.4 hPa 0 mm - 170 W/m² -
1788011527 22.22° C 65% 1023.4 hPa 0 mm - 397 W/m² -
1788011222 21.67° C 67% 1023.4 hPa 0 mm - 232 W/m² -
1788010921 21.67° C 69% 1023.5 hPa 0 mm - 91 W/m² -
1788010616 21.67° C 69% 1023.6 hPa 0 mm - 49 W/m² -
1788010314 21.67° C 69% 1023.4 hPa 0 mm - 83 W/m² -
1788010010 21.67° C 70% 1023.2 hPa 0 mm - 62 W/m² -

* Rain latest hour (hover to see other rain measurements)
** Current wind speed in m/s (hover to see current wind gust speed)